www.pogodaiklimat.ru

Погода и климат >> Архив погоды >> Россия >> Якутия >> Токо


ПОГОДА в Токо

  • Прогноз погоды в Токо
  • Монитор погоды в Токо
  • Климат города

АРХИВ ПОГОДЫ в Токо

Время (UTC), дата Ветер
(напр.,м/с)
 
Видим.   Явления Облачность Т
(С)
Тd
(С)
f
(%)
Тe
(С)
Тes
(С)
Комфортность P
(гПа)
Po
(гПа)
Тmin
(С)
Tmax
(С)
R
(мм)
R24
(мм)
S
(см)
12 11.12 штиль 0 50 км 10/0
[Ac und]
-33.6 -35.3 85 -34 -34 опасность
обморожения
1044.6 926.6 -32.7
15 11.12 штиль 0 50 км 10/0
[Ac und]
-32.0 -33.7 85 -32 -32 опасность
обморожения
1043.1 926.0
18 11.12 штиль 0 50 км 10/0
[Ac und]
-31.6 -33.2 86 -32 -32 опасность
обморожения
1042.7 925.8
21 11.12 штиль 0 50 км 4/0
[Ac trans]
-36.7 -38.5 83 -37 -37 опасность
обморожения
1045.2 925.6
00 12.12 штиль 0 50 км 8/0
[Ac trans]
-35.7 -37.4 84 -36 -36 опасность
обморожения
1044.7 925.6 -36.7 29
03 12.12 штиль 0 50 км 9/1 600 м
[Sc Ac trans]
-32.3 -33.9 86 -32 -32 опасность
обморожения
1042.6 925.4
06 12.12 штиль 0 50 км 9/6 600 м
[Sc Ac und]
-28.7 -30.5 84 -29 -29 1040.2 924.8
09 12.12 штиль 0 50 км ясно -34.9 -36.4 86 -35 -35 опасность
обморожения
1043.8 925.3
12 12.12 штиль 0 50 км 6/0
[Ac und]
-34.8 -36.4 85 -35 -35 опасность
обморожения
1044.7 926.2 -28.2
15 12.12 штиль 0 50 км 9/0
[Ac und]
-30.6 -32.3 85 -31 -31 опасность
обморожения
1042.6 926.2
18 12.12 штиль 0 50 км 10/0
[Ac As]
-28.7 -30.5 84 -29 -29 1041.8 926.4
21 12.12 штиль 0 4000 м слабый снег 10/0
[As op]
-28.1 -29.8 85 -28 -28 1041.9 926.7
00 13.12 штиль 0 50 км {снег} 10/0
[Ac As]
-27.3 -29.1 85 -27 -27 1041.8 927.0 -35.0 0.2 29
03 13.12 штиль 0 50 км 8/0
[Ac trans]
-26.1 -27.9 85 -26 -26 1041.0 926.8
06 13.12 штиль 0 50 км 8/0
[Ac As]
-24.9 -27.4 80 -25 -25 1039.5 926.0
09 13.12 штиль 0 50 км 10/0
[Ac und]
-26.4 -28.5 82 -26 -26 1039.4 925.2
12 13.12 штиль 0 50 км 9/0
[Ac trans]
-32.0 -33.7 85 -32 -32 опасность
обморожения
1042.3 925.3 -24.9
15 13.12 штиль 0 50 км 10/0
[Ac und]
-27.4 -29.1 85 -27 -27 1039.6 924.9
18 13.12 штиль 0 50 км 8/0
[Ac trans]
-27.9 -29.6 85 -28 -28 1039.4 924.5
21 13.12 штиль 0 4000 м слабый снег 10/0
[As op]
-24.3 -26.1 85 -24 -24 1036.5 923.5
00 14.12 штиль 0 50 км {снег} 6/6 600 м
[Sc]
-26.4 -28.2 85 -26 -26 1037.2 923.3 -32.0 0.3 29
03 14.12 штиль 0 50 км ясно -28.4 -30.2 84 -28 -28 1037.4 922.6
06 14.12 штиль 0 50 км ясно -23.6 -26.1 80 -24 -24 1034.1 921.6
09 14.12 штиль 0 50 км ясно -34.0 -35.5 86 -34 -34 опасность
обморожения
1039.1 921.5
12 14.12 штиль 0 50 км ясно -39.8 -41.5 84 -40 -40 опасность
обморожения
1042.5 921.8 -23.4
15 14.12 штиль 0 50 км ясно -41.5 -43.1 84 -42 -42 опасность
обморожения
1043.5 921.8
18 14.12 штиль 0 50 км ясно -42.2 -43.7 85 -42 -42 опасность
обморожения
1043.6 921.6
21 14.12 штиль 0 50 км 4/0
[Ac trans]
-42.1 -43.7 84 -42 -42 опасность
обморожения
1042.9 921.0
00 15.12 штиль 0 50 км 8/0
[Ac und]
-39.4 -41.0 85 -39 -39 опасность
обморожения
1040.8 920.5 -42.9 29
03 15.12 штиль 0 50 км 8/6
[Cu hum Ac trans]
-34.1 -35.8 84 -34 -34 опасность
обморожения
1037.6 920.1
06 15.12 СВ 1 50 км 8/0
[Ac trans]
-29.9 -31.7 84 -34 -34 опасность
обморожения
1034.4 919.2
09 15.12 штиль 0 50 км 9/0
[Ac trans]
-31.0 -32.8 84 -31 -31 опасность
обморожения
1034.0 918.4
12 15.12 штиль 0 50 км 10/0
[Ac und]
-29.4 -31.1 85 -29 -29 1033.4 918.5 -29.4
15 15.12 штиль 0 50 км 6/0
[Ac trans]
-34.6 -36.1 86 -35 -35 опасность
обморожения
1036.0 918.5
18 15.12 штиль 0 50 км 6/0
[Ac trans]
-35.6 -37.1 86 -36 -36 опасность
обморожения
1036.1 918.2
21 15.12 штиль 0 50 км 3/0
[Ac trans]
-42.4 -43.7 87 -42 -42 опасность
обморожения
1038.4 916.9
00 16.12 штиль 0 50 км 4/0
[Ac trans]
-41.4 -43.1 83 -41 -41 опасность
обморожения
1036.9 916.1 -42.4 29
03 16.12 штиль 0 50 км ясно -37.7 -39.3 85 -38 -37 опасность
обморожения
1033.9 915.2
06 16.12 штиль 0 50 км 9/0
[Ci]
-31.2 -33.0 84 -31 -31 опасность
обморожения
1031.4 913.4
09 16.12 штиль 0 50 км 4/0
[Ac trans Ci fib]
-36.6 -38.1 86 -37 -37 опасность
обморожения
1030.9 913.1
12 16.12 штиль 0 50 км 3/0
[Ac trans]
-43.0 -44.4 86 -43 -43 опасность
обморожения
1033.9 912.6 -30.8
15 16.12 штиль 0 50 км ясно -44.3 -45.8 85 -44 -44 опасность
обморожения
1033.7 911.8
18 16.12 штиль 0 50 км ясно -45.9 -47.4 85 -46 -46 опасность
обморожения
1033.2 910.5
21 16.12 штиль 0 50 км ясно -46.6 -48.3 83 -47 -47 опасность
обморожения
1032.5 909.6
00 17.12 штиль 0 50 км ясно -47.1 -48.3 87 -47 -47 опасность
обморожения
1032.8 909.4 -47.1 29
03 17.12 штиль 0 50 км ясно -42.4 -43.7 87 -42 -42 опасность
обморожения
1029.5 909.1
06 17.12 штиль 0 50 км ясно -35.2 -37.4 80 -35 -35 опасность
обморожения
1024.5 908.1
09 17.12 штиль 0 50 км 3/3 1000 м
[Sc diur, vesp]
-42.4 -44.3 81 -42 -42 опасность
обморожения
1029.0 908.6
12 17.12 ЮЗ 1 50 км 6/0
[Ac trans]
-43.3 -45.0 83 -49 -49 опасность
обморожения
1030.9 909.8 -35.2
15 17.12 штиль 0 50 км 8/0
[Ac trans]
-38.3 -39.7 87 -38 -38 опасность
обморожения
1027.9 909.5
18 17.12 штиль 0 50 км 8/0
[Ac trans]
-37.7 -39.3 85 -38 -38 опасность
обморожения
1027.2 909.3
21 17.12 С 1 50 км 8/0
[Ac trans]
-38.8 -40.5 84 -44 -44 опасность
обморожения
1028.5 909.9
00 18.12 штиль 0 50 км 4/0
[Ac trans]
-40.9 -42.6 83 -41 -41 опасность
обморожения
1030.0 910.2 -43.3 29
03 18.12 штиль 0 50 км 4/0
[Ci fib]
-38.1 -39.7 85 -38 -37 опасность
обморожения
1029.1 910.7
06 18.12 штиль 0 50 км 9/5 600 м
[Sc Ac trans]
-32.8 -35.1 80 -33 -33 опасность
обморожения
1025.4 909.9
09 18.12 штиль 0 50 км 4/1 600 м
[Sc Ac trans]
-37.7 -39.3 85 -38 -38 опасность
обморожения
1028.5 910.4

 

Местоположение метеостанции Токо (Якутия, Россия): широта 56.28 долгота 131.10 высота над уровнем моря 850 м.

В архиве по умолчанию представлена погода в Токо за последнюю неделю. Архивные данные за месяц целиком и за предыдущие месяцы, начиная с января 2011 года, Вы можете получить, выбрав интересующий диапазон дат из раскрывающегося списка и нажав кнопку "Ввод!".

Внимание! Время в таблицах - всемирное. Для получения местного времени необходимо прибавить поправку, которая в Токо равна 10 ч.

Смотрите также архив погоды в соседних городах и на ближайших метеорологических станциях:

Погода в Чюльбю (Якутия, Россия) (166 км)
Погода в Локшаке (Амурская область, Россия) (178 км)
Погода в Бомнаке (Амурская область, Россия) (226 км)
Погода в Джане (Хабаровский край, Россия) (238 км)
Погода в Учуре (Якутия, Россия) (274 км)
Погода в Удском (Хабаровский край, Россия) (287 км)
Погода в Угино (Якутия, Россия) (304 км)
Погода в Береговом (Амурская область, Россия) (315 км)
Погода в Чумикане (Хабаровский край, Россия) (316 км)
Погода в Дугде (Амурская область, Россия) (333 км)

Пояснения к столбцам:

Ветер - указаны скорость ветра в м/с - средняя за 10 мин, порывы в срок и между сроками (в фигурных скобках) и направление, откуда дует ветер: С - северный, СВ - северо-восточный, В - восточный, ЮВ - юго-восточный, Ю - южный, ЮЗ - юго-западный, З - западный, СЗ - северо-западный.
Видимость - горизонтальная дальность видимости в метрах или километрах. При видимости от 1 до 10 км при отсутствии осадков обычно наблюдается дымка, при ухудшении видимости до 1 км и менее - туман. В сухую погоду видимость может ухудшаться дымом, пылью или мглою.
Явления - указаны атмосферные явления, наблюдавшиеся в срок или в последний час перед сроком; фигурными скобками обозначены явления, наблюдавшиеся между сроками (за 1-3 часа до срока); квадратными скобками обозначены град или гололедные отложения с указанием их диаметра в мм.
Облачность - указаны через наклонную черту общая и нижняя облачность в баллах и высота нижней границы облаков в метрах; квадратными скобками обозначены формы облаков: Ci - перистые, Cs - перисто-слоистые, Cc - перисто-кучевые, Ac - высококучевые, As - высокослоистые, Sc - слоисто-кучевые, Ns - слоисто-дождевые, Cu - кучевые, Cb - кучево-дождевые. Подробнее классификацию облаков см. в Атласе облаков (PDF).
T - Температура воздуха - температура, измеренная на высоте 2 м над землей.
Td - Температура точки росы - температура, при понижении до которой содержащийся в воздухе водяной пар достигнет насыщения.
f - Относительная влажность воздуха - влажноcть воздуха, измеренная на высоте 2 м над землей.
Te - Эффективная температура - температура, которую ощущает одетый по сезону человек в тени. Характеристика душности погоды. При расчете учитывается влияние влажности воздуха и скорости ветра на теплоощущения человека.
Tes - Эффективная температура на солнце - температура, которую ощущает человек, с поправкой на солнечный нагрев. Характеристика знойности погоды. Зависит от высоты солнца над горизонтом, облачности и скорости ветра. Ночью, в пасмурную погоду, а также при ветре 12 м/с и более поправка равна нулю.
P - Атмосферное давление - приведенное к уровню моря атмосферное давление.
Po - Атмосферное давление - измеренное на уровне метеостанции атмосферное давление.
Tmin - Минимальная температура - минимум температуры воздуха на высоте 2 м над землей.
Tmax - Максимальная температура - максимум температуры воздуха на высоте 2 м над землей.
R - Количество осадков - Количество выпавших осадков за период времени, мм. При наведении курсора мыши на число - период времени, за который выпало указанное количество осадков.
R24 - Количество осадков - Количество выпавших осадков за 24 часа, мм.
S - Снежный покров - Высота снежного покрова, см. При наведении курсора мыши на число - состояние снежного покрова и степень покрытия местности в баллах.